STARLINK-5874 (56353 NORAD) Tracking and Keplerian Element Data

This shows tracking and keplerian element data for the satellite.

Feedback or suggestion? Click here.




ElementValue
Catalog56353
NameSTARLINK-5874
Epoch Orbit183
Epoch Day127.16667824
Epoch Year2023
RAAN126.6572
Inclination97.664
Eccentricity0.0001568
Argument of Perigee97.8623
Mean Anonmoly97.5442
Mean Motion15.68019547
Decay Rate-0.00857992
L11 56353U 23058AN 23127.16667824 -.00857992 00000+0 -86019-2 0 9992
L22 56353 97.6640 126.6572 0001568 97.8623 97.5442 15.68019547 1839



Live tracking and technical data element details for STARLINK-5874 (NORAD 56353). STARLINK-5874 can be tracked NOW for your location showing map with azimuth and elevation plus other details from your city location.







IsCatalogInMostPopularTable: catalog: 56353, numindb: 5
Update: records affected: 1



GetName: 56353 STARLINK-5874

Hit Count: updated at: Sat, 03 Jun 2023 17:25:49 GMT